TimeEST,TemperatureF,Dew PointF,Humidity,Sea Level PressureIn,VisibilityMPH,Wind Direction,Wind SpeedMPH,Gust SpeedMPH,PrecipitationIn,Events,Conditions,WindDirDegrees,DateUTC
12:56 AM,45.0,37.0,74,30.14,10.0,North,5.8,-,N/A,,Clear,10,2012-12-12 05:56:00
1:56 AM,45.0,37.0,74,30.15,10.0,North,8.1,-,N/A,,Clear,360,2012-12-12 06:56:00
2:56 AM,45.0,35.1,68,30.15,10.0,NNE,5.8,-,N/A,,Clear,30,2012-12-12 07:56:00
3:56 AM,45.0,33.1,63,30.18,10.0,NE,6.9,-,N/A,,Clear,40,2012-12-12 08:56:00
4:56 AM,45.0,32.0,60,30.18,10.0,NNE,6.9,-,N/A,,Partly Cloudy,30,2012-12-12 09:56:00
5:56 AM,44.1,32.0,63,30.18,10.0,NE,6.9,-,N/A,,Overcast,40,2012-12-12 10:56:00
6:56 AM,44.1,32.0,63,30.19,10.0,NNE,9.2,-,N/A,,Overcast,30,2012-12-12 11:56:00
7:56 AM,44.1,32.0,63,30.20,10.0,NE,8.1,-,N/A,,Clear,50,2012-12-12 12:56:00
8:56 AM,45.0,32.0,60,30.23,10.0,NNE,10.4,-,N/A,,Clear,30,2012-12-12 13:56:00
9:56 AM,46.9,34.0,61,30.24,10.0,NE,9.2,17.3,N/A,,Clear,40,2012-12-12 14:56:00
10:46 AM,48.2,35.6,62,30.25,10.0,Variable,6.9,16.1,N/A,,Mostly Cloudy,0,2012-12-12 15:46:00
10:56 AM,46.9,35.1,63,30.26,10.0,Variable,4.6,-,N/A,,Overcast,0,2012-12-12 15:56:00
11:56 AM,44.1,39.0,82,30.27,6.0,Variable,3.5,-,0.02,Rain,Light Rain,0,2012-12-12 16:56:00
12:37 PM,44.6,41.0,87,30.24,7.0,NNE,6.9,-,0.06,Rain,Light Rain,30,2012-12-12 17:37:00
12:56 PM,44.1,42.1,93,30.22,6.0,NE,3.5,-,0.07,Rain,Light Rain,50,2012-12-12 17:56:00
1:11 PM,44.6,42.8,93,30.24,7.0,NNE,4.6,-,0.02,Rain,Light Rain,20,2012-12-12 18:11:00
1:18 PM,44.6,42.8,93,30.23,10.0,North,6.9,-,0.02,Rain,Light Rain,10,2012-12-12 18:18:00
1:56 PM,45.0,42.1,90,30.21,10.0,NE,6.9,-,0.02,Rain,Light Rain,40,2012-12-12 18:56:00
2:56 PM,45.0,41.0,86,30.23,10.0,NNE,5.8,-,0.00,,Overcast,30,2012-12-12 19:56:00
3:56 PM,44.1,39.9,85,30.24,10.0,NNE,6.9,-,N/A,,Mostly Cloudy,30,2012-12-12 20:56:00
4:03 PM,44.6,39.2,81,30.23,10.0,NE,6.9,-,N/A,,Mostly Cloudy,50,2012-12-12 21:03:00
4:56 PM,44.1,39.9,85,30.23,10.0,NE,9.2,-,0.00,Rain,Light Rain,50,2012-12-12 21:56:00
5:56 PM,43.0,39.9,89,30.25,10.0,NE,6.9,-,0.01,,Overcast,40,2012-12-12 22:56:00
6:56 PM,43.0,39.9,89,30.25,10.0,NE,6.9,-,N/A,,Overcast,50,2012-12-12 23:56:00
7:56 PM,43.0,39.9,89,30.26,10.0,NE,9.2,-,N/A,,Overcast,40,2012-12-13 00:56:00
8:56 PM,44.1,39.9,85,30.27,10.0,NNE,9.2,-,N/A,,Overcast,30,2012-12-13 01:56:00
9:56 PM,44.1,37.0,76,30.32,10.0,Variable,4.6,-,N/A,,Overcast,0,2012-12-13 02:56:00
10:44 PM,42.8,37.4,81,30.25,5.0,ENE,10.4,20.7,0.05,Rain,Heavy Rain,70,2012-12-13 03:44:00
10:56 PM,41.0,37.9,89,30.27,4.0,NE,10.4,18.4,0.08,Rain,Rain,50,2012-12-13 03:56:00
11:56 PM,42.1,39.0,89,30.30,10.0,NE,5.8,-,0.01,,Overcast,40,2012-12-13 04:56:00